FOX-1B (AO-91)

Last updated on Sun Nov 18 2018 00:08:36 GMT+0000 (Coordinated Universal Time)

1 43017U 17073E 18321.74032691 .00000443 00000-0 39719-4 0 9994 2 43017 97.7143 246.5272 0260188 131.5316 230.8537 14.78270962 53799
UTC large
Height (km)
Speed (km/s)
/
Latitude / Longitude
Inclination (degrees)
Orbital Period (minutes)
Azimuth
Elevation
Range (km)
Doppler Factor

Next 0 passes for location: London (51.5072 / 0.1276)

Sorry there are no passes over London.